Theta_e
350 350 350 349 348 350 351 352 351 349 348 348 348 348 348 348 347 348 349 349 349 349 349 346 342 342 341 341 340 339 339 339 339 340 341 341 341 342 344 346 346 346 347 348 349 348 346 347 346 346 346 345 345 345 345 345 343 343 341 341 340 340 340 340 341 342 343 343 342 343 342 341 340 338 336 335 335 336 336 335 335 335 336 337 337
350 351 351 350 348 349 351 351 350 348 348 348 348 347 347 347 348 348 349 349 349 349 348 345 342 342 341 341 340 340 340 339 337 338 340 341 340 341 343 344 345 346 347 348 350 347 346 347 345 346 347 346 345 345 345 345 344 343 342 341 341 341 341 340 340 341 341 341 341 341 342 343 341 339 338 336 337 337 336 336 336 336 336 338 338
351 351 351 350 350 350 351 350 349 349 348 348 348 348 348 348 348 349 349 349 349 349 348 345 342 342 341 340 339 339 338 338 336 337 339 340 340 341 341 342 342 344 346 347 349 348 346 347 345 345 347 347 346 345 345 345 345 344 343 341 341 340 341 340 340 340 340 340 340 340 340 342 343 341 340 338 337 337 336 338 339 339 338 338 337
351 351 351 351 351 351 351 350 349 350 349 348 349 349 349 349 349 349 350 350 350 349 346 344 342 341 341 340 339 337 336 336 336 336 337 339 340 340 340 341 341 343 345 346 347 347 347 348 347 346 346 347 348 346 346 347 346 346 344 342 342 342 342 342 341 341 340 340 341 341 340 341 341 341 341 340 339 338 337 338 339 340 340 339 338
351 351 351 351 350 351 351 350 349 350 349 349 349 349 349 349 349 349 350 349 349 347 344 342 341 341 340 339 339 338 335 336 337 336 337 338 339 341 341 340 341 342 343 345 345 346 348 349 348 347 346 346 346 345 346 347 347 347 346 345 345 344 343 342 341 340 340 340 339 339 339 339 340 340 341 341 340 340 339 339 339 339 340 340 339
352 351 350 350 350 350 350 350 350 350 350 350 349 349 348 349 349 348 349 349 347 346 344 343 341 341 341 339 338 337 336 336 337 337 337 338 339 341 341 341 341 341 342 343 344 346 349 348 347 346 346 346 345 345 345 346 347 347 347 347 345 344 344 342 341 340 339 340 339 339 339 338 338 339 339 340 340 340 339 339 339 339 339 339 338
352 352 351 350 349 350 350 351 350 351 351 351 351 349 349 349 349 348 349 348 347 346 345 344 342 341 341 340 338 337 337 337 337 338 337 339 340 341 342 341 341 341 341 342 343 345 346 346 346 346 347 346 345 345 345 346 346 346 347 347 345 344 344 344 344 343 343 342 342 342 341 339 339 339 338 338 338 339 339 338 338 338 338 338 338
353 353 353 350 349 350 351 351 351 351 351 352 350 349 350 350 349 348 348 348 347 345 344 343 341 340 341 340 339 338 338 338 338 338 337 339 341 342 342 342 342 342 341 341 342 343 343 343 345 345 347 347 346 346 346 347 347 346 346 347 346 346 345 345 345 345 344 344 344 344 343 342 341 341 340 339 339 338 338 337 337 337 337 338 338
353 354 353 351 351 351 351 352 352 352 351 351 349 349 351 350 348 347 347 347 346 344 343 340 338 338 340 340 339 338 337 337 338 338 338 339 340 341 342 341 342 341 341 341 342 342 343 343 343 343 345 345 346 347 347 347 347 345 345 346 347 347 346 345 345 345 345 345 345 345 344 344 343 343 342 341 341 340 339 338 336 336 336 336 336
353 353 354 352 352 353 352 353 353 352 351 349 349 350 351 350 347 346 346 346 345 345 341 337 335 336 339 340 339 337 336 338 338 339 339 340 340 340 341 342 341 341 341 342 343 342 342 342 342 343 344 345 346 346 346 347 346 346 345 345 347 348 346 345 344 344 345 345 346 346 345 345 345 344 343 343 342 341 341 340 339 337 336 336 336
353 354 354 353 354 354 354 354 354 352 349 348 349 351 351 349 347 346 345 345 345 344 339 336 337 335 336 338 339 338 337 338 338 337 339 341 340 339 339 341 341 341 342 343 344 343 342 342 342 343 343 344 346 345 345 346 346 346 345 344 346 347 346 345 344 344 345 346 346 346 346 345 346 346 345 344 343 343 342 342 341 341 340 340 340
353 354 354 354 354 355 355 355 355 351 349 349 350 350 350 349 347 345 345 345 342 339 337 337 338 337 337 338 338 338 337 337 337 337 338 340 340 339 338 339 339 341 342 343 344 343 342 342 342 342 341 342 344 344 344 345 345 346 346 345 346 346 345 345 345 345 345 345 346 346 346 345 346 345 345 345 344 344 344 343 343 343 343 343 343
353 354 354 354 355 355 355 355 355 352 350 350 350 350 350 349 346 345 345 343 338 336 337 338 337 337 339 338 338 338 338 338 338 338 337 338 340 339 338 338 338 338 339 340 341 342 342 342 342 342 340 340 342 344 345 345 345 346 346 346 346 345 345 345 345 345 345 346 346 346 346 346 346 345 345 345 344 344 343 343 344 344 344 344 344
354 355 355 355 355 355 355 355 354 353 351 351 351 350 351 350 346 346 345 341 337 337 339 338 337 338 338 338 339 339 338 338 339 338 336 338 341 339 338 338 337 336 336 335 335 338 340 341 342 341 341 341 341 342 343 344 344 344 344 344 345 345 344 344 344 343 344 345 345 345 345 345 345 345 346 345 345 344 343 343 343 344 344 344 344
355 355 356 356 355 355 354 354 354 353 353 352 352 351 351 349 346 346 343 338 338 339 339 338 338 339 338 339 342 342 341 338 337 338 337 340 341 339 338 338 337 335 334 332 329 331 335 338 340 339 338 339 338 338 337 339 341 339 334 332 335 340 343 344 343 342 343 345 345 344 345 345 345 345 345 345 345 344 344 343 344 344 344 344 345
355 355 355 355 355 354 353 353 353 353 354 353 352 352 351 348 345 345 340 337 339 340 340 339 338 339 340 341 339 341 346 341 335 336 338 341 341 339 339 338 337 336 333 331 328 326 328 332 335 334 333 333 334 335 334 335 335 331 326 323 323 326 332 335 336 337 338 337 336 336 337 340 341 342 344 344 344 344 344 344 344 344 345 345 346
355 354 354 354 355 355 353 353 352 353 354 354 354 353 351 347 345 343 339 338 340 341 340 339 338 338 339 341 339 341 349 344 335 334 335 339 341 340 340 339 338 336 334 331 329 327 327 327 328 328 328 329 330 331 331 331 330 328 327 325 321 318 319 321 323 323 324 324 322 322 324 327 330 333 336 339 341 343 344 344 345 345 345 345 345
355 354 354 354 354 355 354 353 352 352 354 354 354 353 350 346 342 338 338 340 340 341 341 339 338 336 335 339 339 340 345 343 339 337 333 334 337 339 341 340 339 337 334 331 329 328 328 327 326 326 327 327 327 328 328 327 328 328 328 327 323 320 320 318 317 317 317 317 317 316 317 318 320 322 324 327 330 334 337 339 341 343 344 344 344
355 355 354 354 355 355 355 354 352 352 353 354 355 353 349 345 339 337 339 341 340 340 341 340 339 337 335 337 336 337 339 340 341 341 337 333 332 334 338 340 341 338 335 332 330 329 329 328 327 328 329 328 328 328 327 326 327 327 328 328 325 324 325 321 317 318 319 318 318 317 317 316 316 317 317 318 320 321 324 326 328 331 332 334 336
356 355 354 354 355 355 355 354 353 352 352 354 354 353 349 342 338 339 341 341 341 341 340 339 339 337 335 335 336 337 337 338 338 337 341 341 336 334 334 336 341 340 336 333 330 329 329 329 329 329 330 329 329 329 328 327 326 327 327 327 327 327 328 325 321 321 322 322 321 320 320 319 318 317 317 317 317 317 317 318 318 319 319 320 322
356 355 355 355 355 355 356 355 354 352 351 354 354 352 347 339 337 340 341 342 342 340 340 339 339 337 334 334 337 337 336 337 335 333 338 341 340 338 333 332 336 338 337 334 331 329 329 330 330 329 330 330 329 329 328 328 327 328 327 327 328 328 329 328 326 326 326 325 325 324 324 324 322 320 319 318 317 317 317 316 317 317 317 317 317
356 355 355 355 355 355 356 355 354 352 351 354 354 350 344 338 339 341 341 343 342 340 340 339 339 337 334 334 337 337 336 337 334 332 333 334 336 337 332 330 332 334 335 333 331 330 329 330 330 330 330 330 330 329 329 328 328 328 328 328 328 328 329 329 327 327 328 328 328 328 328 328 326 323 321 319 319 317 316 316 316 316 316 317 316
357 356 355 355 356 356 356 355 354 353 353 354 352 346 340 337 340 341 341 342 342 341 340 339 339 338 335 335 336 337 337 336 334 333 332 332 335 335 331 330 331 330 331 331 330 329 329 329 330 330 330 330 330 329 329 329 329 329 328 329 329 329 329 329 328 328 329 329 329 329 330 330 329 327 324 322 322 322 320 318 316 316 316 316 317
357 357 357 356 356 357 356 355 355 354 355 354 349 341 336 337 340 341 341 342 342 340 339 338 338 338 337 336 336 337 337 336 335 334 332 332 335 334 331 332 333 331 331 331 330 329 328 329 330 330 330 330 330 330 330 330 329 329 329 329 329 329 329 329 328 328 329 329 330 330 330 330 330 330 328 327 327 327 326 324 321 318 317 316 315
358 358 358 357 357 357 356 356 356 356 355 352 345 338 337 339 341 341 342 342 341 341 339 338 337 337 337 337 337 338 337 336 335 334 334 333 333 332 331 333 334 333 333 332 331 330 329 330 331 331 330 331 331 331 331 331 331 330 329 329 328 328 329 329 328 329 329 329 329 330 330 330 330 330 330 330 330 330 330 329 328 325 323 320 318
358 358 358 358 357 357 356 356 356 354 353 349 342 337 338 341 341 340 341 342 342 341 340 338 337 336 336 337 337 337 338 337 335 335 334 334 333 332 333 334 333 332 334 334 333 332 331 331 332 332 332 331 332 332 332 331 332 331 330 330 329 328 329 328 329 329 329 330 330 330 330 330 330 331 331 331 331 331 331 331 331 330 329 327 325
358 357 357 357 356 356 357 356 355 353 350 346 340 338 340 342 341 339 341 342 341 341 340 339 337 336 335 335 335 336 336 336 335 335 334 333 333 332 333 336 336 334 333 333 334 333 332 332 332 332 333 332 331 331 331 332 332 332 331 330 329 329 329 329 329 329 330 330 330 330 330 331 331 331 331 331 331 331 331 332 332 332 331 331 330
357 357 357 356 356 356 356 356 355 352 348 344 341 341 341 341 339 339 341 341 339 338 338 337 335 334 335 334 334 334 335 335 335 335 334 333 333 332 332 333 337 340 338 338 337 333 332 333 332 333 332 331 331 330 330 331 331 331 331 330 330 330 329 330 330 330 330 330 331 331 331 331 331 331 331 331 331 331 331 332 332 332 332 331 331
356 356 356 356 356 356 355 355 354 351 346 343 343 343 342 339 339 340 341 340 338 337 336 334 332 333 335 334 334 334 336 335 335 334 333 333 332 332 332 330 333 339 342 345 342 333 331 333 332 332 332 331 331 330 330 331 331 331 331 331 331 331 331 331 331 331 331 331 331 331 331 331 331 332 332 331 332 331 332 331 332 332 332 332 332
356 356 356 356 356 355 355 355 354 351 347 344 345 345 342 339 339 340 340 339 338 337 336 335 333 334 334 334 334 335 336 336 335 334 333 333 332 331 333 332 332 335 336 341 342 334 330 333 332 331 332 331 331 331 330 331 331 332 332 332 332 332 332 332 332 332 332 332 332 332 332 332 332 332 332 332 332 332 332 332 332 331 331 331 332
356 356 356 355 355 355 355 354 353 352 348 345 346 347 344 340 339 339 340 340 339 338 337 337 336 334 334 335 335 335 336 336 335 335 333 334 334 333 333 333 333 333 332 333 337 335 331 332 332 331 332 331 331 330 329 330 331 332 332 331 331 331 331 331 331 331 330 330 331 332 332 332 332 332 331 332 332 332 331 331 332 332 332 332 331
356 356 356 355 354 354 355 354 353 352 350 347 346 348 346 341 338 339 340 340 339 337 337 338 337 335 334 335 336 335 336 336 335 334 334 334 335 334 334 334 333 334 333 332 334 335 333 332 332 331 331 331 331 329 328 328 329 330 330 330 330 330 330 330 330 329 328 329 331 332 332 332 332 332 332 332 332 331 331 331 331 332 332 332 332
356 356 356 354 353 354 354 354 353 352 351 349 348 347 345 341 338 339 340 341 340 338 338 338 336 334 333 334 335 335 336 337 335 335 336 336 334 334 334 334 334 334 334 334 334 334 334 333 332 332 331 331 330 329 329 329 330 330 330 329 329 329 328 329 329 329 328 328 329 331 332 332 333 332 331 331 331 331 331 331 331 331 331 331 331
356 356 355 354 353 353 354 353 353 352 352 350 348 347 345 341 339 339 340 340 339 338 338 337 334 333 333 333 334 335 336 337 336 336 337 336 335 335 334 335 335 334 334 335 335 334 334 333 332 332 331 331 331 330 331 331 331 330 330 328 327 326 326 327 329 330 329 328 329 330 331 332 333 332 330 329 329 330 331 331 331 331 330 329 329
356 355 355 354 353 353 353 353 352 352 352 351 349 347 346 343 340 338 339 339 338 338 338 337 335 333 334 334 334 335 336 337 337 337 337 336 336 336 335 335 335 335 335 335 335 335 334 334 333 332 332 331 332 332 332 331 331 330 329 327 325 326 327 328 329 330 329 329 329 329 330 331 333 332 330 328 328 329 330 330 330 330 329 328 328
355 355 355 354 354 353 353 352 352 352 352 351 349 347 346 345 341 338 338 338 337 337 337 337 336 335 335 335 334 335 337 337 337 337 337 337 336 336 336 335 335 335 335 335 335 335 335 334 333 332 332 332 333 333 332 332 331 330 329 327 326 327 328 328 329 329 329 329 329 328 329 330 332 332 330 328 328 329 329 329 328 327 326 326 326
355 355 355 354 353 353 353 352 352 352 351 351 348 346 346 345 342 339 338 338 338 337 337 337 337 336 336 336 335 335 336 336 337 337 336 336 336 336 336 335 335 335 335 335 335 335 335 334 334 334 333 333 333 333 333 332 331 330 329 328 328 328 328 327 328 329 329 329 328 328 329 329 330 330 329 328 328 328 327 326 325 324 324 325 325
355 355 354 354 354 353 353 352 352 351 351 350 348 346 345 344 342 340 339 338 338 337 337 337 337 337 336 336 336 336 336 336 336 336 336 335 335 336 336 335 335 335 335 335 335 335 335 335 334 334 334 333 333 333 333 332 331 331 330 329 329 328 328 328 328 329 329 329 328 328 329 329 329 329 329 327 325 323 321 320 319 320 322 324 325
355 355 354 354 354 353 353 352 352 352 351 350 348 346 345 343 342 340 340 339 338 337 337 337 337 337 336 336 336 336 336 336 336 337 336 336 336 336 336 336 336 335 335 336 335 335 334 334 334 334 334 333 333 333 333 332 332 331 330 330 330 329 328 329 329 328 328 328 328 328 328 327 328 328 326 323 320 318 317 317 318 318 319 321 322
356 355 355 354 353 353 353 352 352 352 350 350 348 346 344 343 342 341 341 340 338 337 337 337 336 336 336 336 336 336 336 336 336 336 336 336 336 336 336 336 336 336 336 335 336 335 334 334 334 334 334 333 333 333 333 332 331 331 330 330 330 330 329 329 329 328 328 329 329 328 326 325 326 325 323 320 318 317 318 319 319 320 320 321 321
356 356 355 354 354 353 353 353 352 351 351 350 349 347 344 343 342 341 341 340 338 336 336 336 335 335 335 335 335 334 335 336 336 336 336 335 335 335 335 336 336 336 335 335 335 335 335 334 334 333 333 333 333 333 332 332 331 331 331 330 330 330 329 329 329 329 329 329 329 327 326 325 325 323 321 319 318 319 320 320 320 321 322 322 323
357 356 356 355 354 353 352 352 352 351 350 350 349 348 346 344 342 341 341 341 339 337 336 335 335 334 333 334 333 333 334 335 336 336 336 335 335 335 336 336 336 335 335 335 335 335 334 334 333 333 333 333 333 333 332 331 331 331 331 330 329 329 329 329 329 329 329 329 328 327 325 325 324 322 320 319 319 320 320 320 320 321 322 322 323
357 356 356 355 355 354 353 352 352 351 350 349 348 347 346 345 343 342 342 341 340 338 337 336 334 333 333 334 334 333 334 335 335 335 336 336 336 336 336 337 336 336 335 335 334 334 333 333 333 333 332 332 332 332 331 331 332 332 331 330 329 329 329 329 329 329 329 328 328 327 325 323 321 321 320 320 321 321 321 321 321 321 321 321 321
357 356 356 355 355 354 353 352 352 351 350 349 348 347 347 346 344 343 342 341 341 340 338 337 336 334 334 334 335 334 334 335 335 336 337 337 336 336 337 337 337 337 336 335 334 334 333 333 333 333 332 331 331 332 331 331 332 331 331 330 330 330 330 329 329 328 327 327 327 326 324 321 320 320 321 321 321 321 321 321 320 320 320 318 318
357 356 356 355 355 354 354 353 352 351 350 349 348 348 347 346 345 344 343 342 341 340 340 339 338 336 335 333 333 333 335 335 336 337 336 336 337 338 338 338 337 336 335 334 333 333 333 333 332 332 332 331 330 333 333 332 332 331 331 331 330 329 329 329 329 328 325 324 324 323 321 321 321 321 321 321 321 321 320 319 319 319 318 318 318
357 357 356 355 355 354 354 353 353 352 351 350 349 348 347 346 345 344 343 342 342 341 341 341 339 337 336 334 333 334 335 335 335 335 336 336 338 339 338 338 337 335 334 334 333 333 333 333 333 334 334 332 332 333 333 332 332 330 329 328 326 326 327 327 326 325 322 322 322 321 320 321 321 321 321 320 318 317 316 316 316 316 315 315 314
357 356 356 355 355 354 354 353 352 352 351 350 349 348 347 347 346 345 344 342 342 341 342 341 339 337 336 335 335 335 334 334 333 334 335 338 339 339 338 337 336 334 334 333 333 333 333 334 335 336 335 334 333 332 330 329 328 325 323 322 321 321 323 323 323 322 322 321 320 320 320 321 320 320 319 316 314 313 312 312 311 310 310 311 312
357 356 356 356 355 354 354 353 353 352 352 351 351 350 348 348 346 345 344 342 342 342 342 341 340 338 337 337 336 335 333 334 334 335 336 337 338 338 338 337 335 334 333 332 333 334 335 335 335 334 333 332 330 328 327 326 324 321 319 319 318 320 321 321 321 321 319 318 317 319 321 320 317 316 314 312 311 311 309 309 310 311 312 314 315
356 356 356 355 355 354 354 353 353 353 352 352 351 351 350 349 347 346 344 343 342 342 342 341 340 339 338 337 337 336 334 335 337 337 336 337 338 338 337 335 334 332 332 333 334 335 335 334 333 331 330 329 328 327 326 323 321 319 318 319 320 320 320 320 320 318 316 315 315 317 320 319 314 312 312 311 310 310 310 310 312 314 315 316 316
356 355 355 355 355 354 354 353 353 353 352 352 352 351 351 350 349 347 345 343 342 342 341 340 339 339 339 338 338 337 337 338 338 337 337 338 339 337 335 334 333 332 333 334 335 335 334 332 331 330 329 328 327 325 323 320 318 318 319 319 319 318 317 317 317 316 314 313 313 315 317 315 312 312 312 311 311 310 309 310 313 314 315 315 316
356 355 355 354 354 354 354 353 354 353 352 352 352 351 352 350 350 348 345 343 342 341 341 340 339 339 338 338 338 338 338 338 337 336 338 339 338 336 335 333 333 334 335 336 336 334 333 332 331 330 328 326 323 320 318 318 318 319 319 318 317 315 314 314 314 315 315 314 313 313 314 313 312 312 311 312 312 311 310 310 311 312 313 315 316
Wind_Speed
14 13 12 13 13 12 10 9 9 8 7 7 8 8 9 9 8 7 6 5 4 3 3 3 2 2 4 4 5 4 3 3 5 7 7 6 5 6 7 8 9 10 12 14 14 13 13 13 13 12 12 12 12 12 13 13 13 12 12 11 11 10 10 9 9 9 8 8 8 8 8 7 7 7 8 7 7 7 7 7 8 8 7 7 7
14 13 13 14 14 13 11 10 9 8 8 8 7 8 9 9 9 8 7 6 5 4 4 4 3 4 4 5 6 7 6 5 5 7 8 7 5 6 6 6 7 9 12 13 13 13 14 14 14 13 12 12 12 12 13 13 13 13 13 12 12 11 11 10 10 10 9 9 9 9 9 8 8 8 8 8 8 8 8 8 9 9 8 8 8
14 14 14 15 14 14 12 10 10 9 9 8 7 8 9 9 9 8 7 6 6 5 5 6 5 4 4 4 5 6 6 5 5 6 8 8 6 6 5 5 5 7 10 12 13 13 13 14 14 13 13 12 12 12 13 13 13 13 13 12 11 11 11 10 10 10 10 11 10 10 10 9 9 9 9 10 9 10 10 10 10 10 10 10 9
15 15 15 15 15 15 13 12 11 10 9 9 8 9 9 9 8 8 7 7 8 7 6 6 6 4 4 4 4 4 3 3 2 5 8 8 8 6 6 5 5 6 9 11 13 13 13 13 14 14 13 12 13 13 13 13 13 13 13 12 11 11 12 12 12 11 11 11 11 11 11 11 11 10 10 11 11 11 11 11 11 11 11 11 11
16 15 15 16 16 15 14 13 11 10 10 9 9 10 9 9 8 8 8 7 8 8 6 6 6 4 4 3 3 4 2 1 1 2 6 8 9 8 7 6 5 5 7 10 12 13 13 13 13 13 14 14 14 15 14 13 13 14 13 13 13 13 14 14 14 13 13 13 13 13 13 12 12 12 12 12 12 12 12 12 13 13 12 12 12
17 16 15 16 16 16 15 13 12 11 11 10 10 11 10 10 9 9 8 8 8 9 7 6 6 4 3 2 1 2 1 2 2 1 5 9 10 8 7 6 5 5 6 9 11 12 12 11 12 12 14 16 16 15 14 13 13 13 13 14 15 15 15 15 14 14 15 15 14 14 14 14 13 13 13 13 13 13 13 13 14 14 14 13 13
18 17 17 17 17 17 15 14 12 12 11 11 11 12 11 10 8 8 8 9 9 8 7 6 6 5 4 2 0 1 4 4 2 2 5 8 8 7 7 6 5 5 5 6 9 11 10 10 10 11 12 15 16 16 15 14 14 13 13 15 15 14 15 15 14 14 15 14 14 14 15 14 14 14 14 15 14 14 14 14 15 15 15 14 14
19 18 18 19 19 17 15 14 13 12 12 11 12 12 12 9 8 8 8 9 10 8 7 6 5 7 7 3 1 3 5 4 3 4 4 5 6 6 6 6 6 6 4 4 6 8 9 8 9 10 11 13 15 16 16 15 15 15 15 15 14 13 13 13 13 13 14 14 14 14 14 14 14 14 15 16 16 16 15 16 16 16 15 15 15
21 20 20 20 19 17 15 15 13 13 12 12 13 12 11 9 8 9 9 9 9 7 6 6 5 6 7 5 3 4 5 4 5 4 5 6 5 5 5 6 8 7 5 3 4 6 6 6 7 8 9 11 12 14 15 15 16 16 16 15 13 13 14 14 15 15 15 15 15 15 14 14 14 14 16 16 16 16 16 17 17 16 16 16 15
23 22 21 21 19 17 16 15 14 14 14 13 13 12 11 10 9 9 9 9 8 7 5 5 5 5 7 7 5 5 5 4 5 5 6 7 6 6 5 6 7 8 7 5 5 6 6 5 5 6 7 9 10 11 12 13 15 15 15 15 13 12 15 16 16 16 15 15 15 15 15 14 14 15 16 16 16 17 18 19 17 17 17 16 16
24 24 23 22 20 18 17 16 15 14 14 14 14 13 11 10 10 10 9 8 7 7 6 3 3 4 6 6 6 6 5 2 3 4 6 8 8 7 7 6 7 8 8 7 7 7 6 6 5 5 6 7 8 10 11 11 12 12 13 14 13 13 15 15 16 15 14 15 15 15 15 14 14 14 16 17 17 18 19 20 19 18 17 16 16
24 24 24 23 21 19 18 17 16 14 15 15 14 13 12 11 10 9 8 7 7 7 5 3 3 4 4 5 5 5 3 1 2 3 5 8 9 9 9 8 7 7 7 7 7 7 6 6 6 6 6 6 6 8 9 8 9 10 10 11 11 12 14 14 14 14 13 14 14 14 14 13 13 14 16 17 17 18 19 20 20 19 18 16 16
25 25 25 24 22 20 19 18 17 15 15 14 13 12 11 11 10 9 8 7 6 5 4 3 3 3 4 4 5 4 3 2 1 2 3 9 12 10 10 9 8 7 6 6 5 6 5 5 5 5 5 4 4 4 6 6 7 7 6 6 7 9 10 11 11 10 10 12 12 13 12 11 12 13 15 16 17 18 19 19 18 17 18 17 17
25 25 25 24 23 21 20 20 19 17 15 13 12 11 11 11 11 9 8 7 6 5 6 4 2 3 3 2 3 4 4 2 1 1 3 11 15 12 11 10 9 8 7 5 4 4 5 5 5 4 4 4 3 2 3 3 3 3 2 3 4 5 6 6 7 6 6 8 9 10 10 10 11 13 14 15 16 17 18 18 17 16 18 18 18
25 25 25 25 23 22 21 20 20 18 16 14 13 13 12 12 12 10 9 9 7 5 6 6 4 3 3 1 1 2 2 1 3 3 6 14 16 13 12 11 9 8 7 6 3 3 4 5 5 4 3 3 3 2 1 1 1 1 2 1 0 2 2 2 3 3 3 4 5 6 6 8 10 11 12 13 14 15 16 16 16 16 17 17 17
24 24 25 25 23 22 21 21 20 19 17 15 14 15 14 14 13 11 11 11 9 6 7 7 6 5 3 2 0 1 0 1 3 3 10 16 16 14 13 12 11 10 8 6 4 3 3 3 4 3 2 2 3 2 1 1 1 2 3 4 2 1 1 2 2 3 4 4 4 4 4 6 7 8 9 10 11 12 12 13 14 15 15 16 15
24 24 25 25 24 23 22 21 20 19 18 16 15 15 15 15 14 12 13 13 11 8 7 7 6 7 4 2 2 1 2 2 2 2 8 14 15 15 15 13 13 11 9 7 5 4 3 3 3 2 1 2 2 1 1 1 1 2 3 5 4 3 2 1 1 2 2 3 3 2 2 3 5 6 7 7 8 9 9 10 11 12 13 13 13
25 25 25 25 24 23 23 22 21 20 19 17 16 16 16 16 14 14 15 13 11 9 9 8 6 7 6 4 2 2 3 3 2 1 5 8 10 14 16 15 15 12 10 8 6 5 4 3 4 2 1 2 2 1 0 0 0 1 2 4 4 4 5 4 3 2 3 2 2 2 2 2 2 3 4 5 6 7 8 8 9 10 10 10 10
27 26 25 26 25 24 23 23 22 21 20 18 18 17 18 16 14 16 16 13 12 12 11 10 8 6 6 6 4 3 5 5 3 3 3 4 6 11 15 17 17 14 12 10 7 6 5 4 4 3 2 2 2 2 1 1 1 2 2 3 3 4 6 6 4 4 5 4 4 4 3 3 3 3 3 4 4 5 6 7 7 8 8 8 9
28 26 26 26 25 24 24 24 23 22 21 20 19 18 18 17 15 17 16 14 14 14 13 12 11 8 7 7 5 5 6 6 6 6 4 3 4 6 10 15 18 17 14 11 10 8 6 5 5 3 3 3 4 4 2 1 1 2 2 3 3 4 6 6 5 4 5 5 6 6 5 5 5 5 4 4 5 5 6 6 7 7 7 7 7
28 27 26 26 26 25 24 24 24 23 22 20 19 19 19 18 18 18 17 15 15 15 15 15 13 11 9 9 7 6 6 5 7 6 4 3 3 2 6 10 13 17 17 14 12 11 8 6 6 6 5 5 6 6 5 3 2 2 3 3 4 4 5 6 6 5 5 5 6 6 7 7 7 7 6 6 6 6 7 7 7 7 7 7 7
28 28 27 26 26 25 25 24 24 23 22 21 20 21 21 20 20 19 17 17 16 16 16 16 15 13 11 11 10 7 5 4 5 4 3 3 2 1 6 9 8 14 18 17 15 14 12 10 9 9 8 7 8 8 8 7 6 5 5 5 6 6 7 7 7 7 7 7 7 7 8 8 8 7 7 7 7 7 7 8 8 8 8 7 7
29 29 28 27 26 26 25 24 23 23 23 22 22 23 23 22 21 20 19 19 18 17 16 15 15 14 13 13 13 10 6 4 5 6 3 3 2 1 4 7 8 11 15 17 17 15 14 13 11 11 10 9 10 10 10 9 9 8 8 8 8 8 8 8 8 9 9 9 9 9 9 9 9 8 8 8 8 8 8 9 10 10 10 10 9
30 30 30 28 28 27 26 24 23 23 23 24 24 24 23 23 22 21 21 21 20 18 17 16 16 16 15 14 14 12 10 8 7 8 6 5 6 5 3 4 4 7 10 14 17 17 17 15 13 13 12 11 11 12 12 12 12 11 11 10 10 10 10 10 10 11 11 11 12 11 11 12 11 10 9 9 9 9 9 9 10 11 12 12 12
32 32 31 30 29 28 27 26 24 24 24 25 26 25 24 24 23 22 22 23 21 20 18 17 17 17 16 15 14 13 12 11 9 8 8 7 8 7 4 2 2 4 5 7 11 15 18 16 14 14 14 14 14 15 15 14 14 13 13 13 12 12 12 12 12 12 13 14 14 14 14 14 13 12 11 11 11 11 11 10 10 11 12 13 13
34 34 33 31 30 29 28 26 25 24 26 27 26 25 25 24 23 23 23 23 22 21 20 19 18 17 16 16 15 13 13 12 11 10 9 9 9 9 6 2 1 2 3 4 6 9 13 14 14 13 12 11 12 14 15 15 15 15 15 15 15 14 14 14 14 14 14 14 15 15 15 15 15 14 14 13 13 13 13 13 13 13 13 13 14
35 34 33 31 30 29 28 27 26 26 28 28 26 25 26 25 24 24 24 23 22 22 21 20 20 19 18 17 14 12 12 13 13 12 11 11 11 12 10 5 1 1 2 3 5 7 10 11 11 11 9 8 9 10 10 11 13 13 15 16 16 15 15 16 16 16 16 16 15 15 14 14 14 14 15 15 15 15 15 15 16 16 16 16 16
35 34 32 31 30 29 29 28 27 28 30 29 27 26 26 26 26 26 26 24 23 22 21 21 20 20 20 19 15 13 12 13 13 13 12 12 11 12 12 10 6 1 2 3 4 7 10 10 9 10 9 7 8 8 7 8 8 10 12 13 15 15 15 17 18 19 19 19 18 17 16 15 15 15 15 16 16 16 17 17 18 18 18 18 18
35 34 33 32 31 30 30 29 29 31 31 30 28 27 27 28 28 27 26 25 23 22 22 21 20 20 20 19 17 15 13 12 12 12 12 13 13 12 12 12 11 6 2 2 4 6 8 9 9 9 9 8 7 7 7 7 7 8 10 11 13 15 16 17 18 19 20 20 20 20 19 18 18 17 17 17 17 18 18 18 19 19 19 19 19
35 34 33 32 31 30 31 31 32 33 33 31 30 29 29 29 29 28 27 25 24 23 23 22 20 20 21 20 17 16 14 13 12 12 12 12 13 13 12 12 12 10 7 4 4 6 8 9 10 9 9 9 8 7 8 8 8 9 10 12 13 15 16 16 16 17 18 19 19 20 20 20 20 19 19 19 19 19 19 19 19 19 18 18 18
34 34 33 33 32 32 33 33 33 34 34 33 32 31 31 31 30 30 29 27 26 25 24 23 22 21 22 21 18 17 16 15 13 12 12 12 13 13 13 13 13 12 12 8 3 6 9 10 11 9 8 9 8 9 9 9 9 10 11 12 13 15 16 16 17 18 18 19 19 18 19 19 20 20 20 20 19 19 19 19 19 19 18 18 19
35 35 34 34 34 34 34 34 35 35 35 34 33 33 33 32 32 31 30 30 29 27 26 24 23 23 24 23 20 18 17 17 16 14 13 13 13 14 14 14 14 12 12 10 7 7 11 11 11 10 9 10 10 11 11 10 10 11 12 13 15 16 17 18 18 18 18 18 18 18 18 18 18 18 19 19 19 19 18 18 18 18 18 18 19
35 35 35 35 35 35 35 36 36 36 36 36 35 35 35 34 32 32 31 31 31 30 28 26 24 25 26 25 22 19 18 18 17 15 14 14 14 15 15 15 14 13 12 12 10 10 12 13 12 12 11 11 12 12 12 13 12 12 13 15 16 18 19 20 19 17 16 16 16 16 17 17 17 17 18 19 19 18 17 17 17 17 18 18 19
36 36 36 36 36 36 36 37 37 37 37 36 36 37 36 35 34 33 32 32 32 32 29 27 26 25 25 26 24 21 20 19 18 16 16 15 15 16 16 16 16 15 14 14 13 11 12 14 14 13 12 12 13 13 13 15 15 15 16 17 18 19 19 20 19 17 17 17 16 15 15 16 17 17 18 19 19 18 17 17 17 17 18 18 19
36 37 37 37 37 37 37 38 38 38 37 37 38 38 38 37 36 35 34 33 33 33 32 30 27 26 26 26 26 24 22 21 20 18 17 17 18 18 18 17 17 17 16 16 15 14 14 15 14 14 13 13 15 15 14 15 16 16 18 20 21 21 20 19 18 18 17 16 15 15 15 16 17 18 19 19 19 18 17 17 18 18 20 21 21
36 37 37 37 38 38 38 38 38 39 38 38 38 39 39 38 37 36 35 34 34 34 34 32 30 28 27 27 27 25 23 23 22 21 19 19 20 20 19 18 18 19 18 17 17 16 15 15 16 16 15 15 16 15 15 15 16 16 19 22 23 22 20 18 17 17 16 14 14 16 16 17 18 19 19 20 19 18 18 19 20 22 23 23 23
37 37 37 37 37 38 39 39 39 39 39 39 39 39 40 39 38 37 36 35 34 35 34 33 32 31 30 29 28 26 25 25 24 23 22 21 21 21 20 19 19 20 19 18 18 17 17 18 19 19 17 17 17 17 16 16 17 18 20 23 22 20 20 19 17 15 14 15 16 17 17 18 19 19 20 20 20 20 21 22 23 24 24 23 22
37 37 37 38 38 39 40 40 40 40 39 39 39 39 40 39 39 38 37 36 35 35 34 34 33 32 32 31 30 28 27 27 26 24 22 21 21 22 21 20 20 20 20 20 19 17 18 20 21 21 20 19 18 17 16 15 16 19 21 23 21 18 18 19 17 16 16 18 19 19 19 20 20 20 19 20 20 22 23 23 24 24 24 24 23
37 37 37 37 38 39 39 39 40 40 39 40 40 40 40 39 39 39 37 37 36 35 35 35 34 33 33 32 31 30 29 28 27 25 23 21 21 21 22 21 21 21 22 22 20 19 19 20 21 22 22 20 18 17 16 16 17 18 19 19 19 19 18 17 18 19 19 20 20 20 20 21 20 19 19 21 22 22 21 21 21 22 23 24 24
38 38 37 37 37 38 38 39 39 39 39 40 41 41 40 39 39 39 38 37 36 36 36 36 35 35 34 34 33 33 31 29 27 25 24 23 21 21 21 21 22 23 23 23 21 20 20 20 21 22 21 19 18 18 19 18 17 18 17 15 16 19 19 18 19 20 20 20 19 19 19 19 19 20 23 24 22 19 18 18 18 18 19 19 19
38 37 37 36 36 36 37 38 38 39 40 41 42 42 41 40 39 38 38 37 37 36 35 35 35 35 35 35 35 34 33 30 27 25 24 23 22 21 21 21 23 23 23 22 21 21 21 20 21 22 20 19 20 19 19 19 17 19 19 16 16 18 18 18 20 20 19 19 19 18 17 18 20 24 26 24 20 18 17 17 16 17 17 17 17
37 36 36 36 36 36 37 37 38 39 41 42 43 43 42 41 39 38 37 37 37 36 35 34 35 35 36 36 35 34 33 31 29 27 24 22 21 21 21 21 22 23 23 22 22 22 21 20 21 20 17 18 21 19 18 19 19 19 18 17 16 17 16 16 19 21 20 17 16 16 18 20 22 25 24 22 20 19 18 17 17 18 17 17 17
36 35 35 36 36 37 37 38 39 40 42 42 41 42 43 42 40 38 38 38 37 36 35 34 35 36 37 36 34 33 32 31 29 27 24 22 21 21 21 21 22 23 22 22 22 23 21 20 20 19 16 18 21 19 17 19 19 17 16 15 15 16 15 13 14 19 20 17 14 15 20 23 24 25 22 20 19 18 17 18 19 18 18 17 16
36 36 36 36 37 38 38 38 39 41 41 41 40 41 42 42 41 39 38 38 38 37 37 36 37 37 35 33 33 33 32 30 28 26 23 22 21 21 21 22 23 24 22 21 21 21 19 18 18 18 17 17 18 18 18 18 17 15 14 15 15 15 15 13 13 17 19 19 16 16 20 23 22 21 19 18 18 16 16 17 18 18 18 18 18
35 36 37 37 38 39 39 39 40 41 40 39 40 41 42 42 41 40 39 39 38 38 38 38 38 36 33 32 33 34 32 30 27 26 24 22 20 20 21 22 23 23 20 19 20 19 18 17 17 18 18 16 15 16 15 15 15 15 15 15 14 13 14 14 16 18 19 20 19 18 20 21 19 16 17 16 15 14 14 16 17 18 19 21 22
36 37 38 38 38 39 40 40 40 40 38 38 40 41 41 41 41 41 41 40 39 39 39 40 38 35 32 32 32 31 29 28 27 26 24 21 19 19 21 23 23 21 19 18 18 17 16 15 16 18 18 16 14 13 12 13 14 13 12 12 12 13 15 15 17 19 20 20 18 15 14 17 17 15 16 15 14 15 17 19 21 22 23 25 25
38 38 38 38 39 40 40 40 39 38 38 38 39 40 40 40 40 41 41 40 39 39 39 39 37 34 31 31 30 28 26 25 26 25 23 20 18 20 21 21 21 20 18 17 15 15 14 14 15 16 14 13 12 11 11 10 10 10 10 12 13 15 16 16 18 19 18 16 14 9 10 14 15 15 16 17 16 19 20 22 24 24 23 21 20
38 37 38 39 40 40 39 39 38 38 38 38 39 40 39 39 39 40 40 39 38 38 39 38 35 31 30 31 30 28 26 26 26 25 22 19 19 20 20 20 21 20 16 14 14 13 13 13 12 12 11 10 10 9 8 8 10 12 13 14 15 14 14 14 15 15 14 13 13 9 10 12 13 15 18 19 19 20 22 22 21 18 16 16 16
37 38 39 40 40 39 39 39 39 38 37 37 39 39 39 38 38 39 40 39 37 38 38 35 30 28 29 30 29 28 28 27 26 23 20 18 18 18 18 20 21 18 14 13 12 12 11 10 9 9 9 8 8 8 9 10 12 13 13 13 11 9 9 9 8 9 12 15 14 10 10 12 13 15 19 20 19 20 20 20 18 15 16 18 19
39 40 40 39 38 39 39 40 41 39 37 37 38 38 38 38 38 39 40 38 36 36 33 29 27 28 28 28 26 25 26 26 24 20 18 18 17 16 18 20 20 17 13 11 10 9 8 8 8 8 8 9 10 11 12 12 11 10 9 8 6 5 6 6 7 10 13 14 13 8 9 12 15 16 18 19 18 19 20 18 18 18 20 21 21
39 39 38 36 36 38 39 40 41 39 37 37 37 37 37 37 37 39 39 36 34 32 27 25 26 27 26 25 24 24 24 24 22 19 18 18 16 16 20 23 20 16 13 11 9 9 8 9 9 10 10 10 11 11 9 8 7 6 6 5 4 6 8 9 11 10 8 9 11 10 10 14 16 17 16 13 11 14 19 19 19 22 22 21 22
Wind_Direction
217 218 222 227 226 229 234 241 251 247 235 232 225 225 227 229 235 236 233 238 248 255 258 249 247 290 303 305 296 287 282 256 242 229 214 205 206 214 218 217 225 222 212 208 202 199 198 199 203 203 204 204 202 204 203 202 203 203 202 200 200 200 203 205 208 210 210 213 218 222 226 227 231 235 238 239 238 238 238 242 245 245 248 250 252
218 220 225 228 226 229 234 239 247 245 235 234 233 231 230 232 236 240 242 241 247 250 255 256 255 290 306 309 298 292 288 264 246 244 229 217 212 210 222 228 226 222 218 213 209 208 204 200 203 204 206 208 206 207 206 206 205 206 205 203 203 203 205 207 209 212 214 219 222 228 233 235 239 242 245 246 245 245 245 247 251 254 256 257 260
220 224 227 228 227 229 233 235 238 237 235 236 234 231 232 241 245 250 250 247 252 248 254 262 256 273 298 316 311 300 284 255 244 252 238 225 219 209 217 231 230 221 215 214 216 217 213 208 206 205 208 210 213 214 211 210 209 209 209 208 207 208 210 213 215 217 220 223 225 230 236 238 242 246 249 252 252 253 253 252 253 255 258 262 265
223 227 230 231 230 232 233 231 232 233 232 233 233 234 239 248 254 256 250 249 253 247 251 253 243 259 284 296 316 322 288 254 260 257 241 225 218 213 215 224 230 222 213 212 219 222 218 212 210 209 209 211 216 220 220 217 214 213 212 211 211 210 212 215 218 220 224 227 226 228 232 234 239 243 246 251 253 254 256 258 259 259 259 261 264
225 228 232 233 234 235 234 231 230 229 228 231 232 235 243 251 259 257 250 251 247 239 242 241 238 260 280 271 303 324 284 196 70 257 232 211 207 211 214 220 227 223 215 214 222 229 223 215 216 215 212 215 218 219 221 222 221 221 218 215 216 217 217 218 219 222 225 228 228 228 230 231 236 240 244 248 250 252 255 258 261 261 262 263 263
228 230 233 235 236 235 232 231 230 227 227 231 233 237 244 251 256 252 248 246 236 237 245 245 244 253 278 276 289 302 208 157 106 170 194 191 197 207 213 220 228 226 217 215 222 230 229 224 226 224 218 222 225 223 222 223 226 228 227 224 222 223 226 225 225 227 230 232 234 234 236 235 236 238 240 244 249 252 254 257 260 261 262 263 264
229 231 234 236 236 233 231 231 229 228 228 234 239 242 244 248 248 245 247 242 235 241 252 260 261 261 275 297 193 155 142 144 137 156 188 194 196 204 214 221 228 233 224 218 223 230 237 237 234 232 228 228 229 228 225 223 226 229 231 235 232 230 234 235 234 236 238 239 240 240 241 241 240 242 243 244 245 248 250 252 256 259 261 262 264
229 230 233 235 233 233 232 229 229 232 233 238 243 241 240 242 241 241 245 241 237 243 254 269 277 275 276 270 172 158 143 145 154 150 168 187 195 201 211 213 216 226 221 215 222 227 238 241 237 235 234 234 232 234 234 229 229 230 230 238 240 238 240 245 245 246 248 250 250 249 247 247 246 247 249 248 247 249 249 249 251 255 258 262 266
229 229 231 232 231 233 232 229 231 234 235 240 241 235 234 239 238 237 239 238 237 244 262 278 278 275 267 255 228 187 166 162 171 165 158 159 170 184 194 200 204 210 206 207 218 222 231 233 235 235 234 238 237 240 242 236 235 238 237 238 243 247 246 246 246 247 252 257 259 258 256 254 253 252 253 254 253 253 252 249 249 252 254 256 261
229 229 231 231 232 234 233 230 232 234 235 238 237 232 231 235 235 234 235 234 239 251 271 283 276 265 253 255 248 201 178 164 169 175 175 162 145 152 171 187 196 200 198 203 215 222 229 227 230 236 237 241 241 243 245 242 242 247 248 243 241 248 249 247 249 251 252 256 260 261 260 258 258 258 259 260 258 255 254 252 250 249 250 251 254
229 230 231 231 233 235 234 231 232 233 232 233 232 231 232 232 232 236 233 232 249 264 271 279 271 247 235 240 232 208 195 162 145 157 183 179 157 154 162 173 189 199 202 207 214 219 222 223 227 239 245 245 243 244 245 246 248 250 251 245 236 236 241 244 249 253 252 254 257 258 259 259 262 263 263 263 260 257 257 258 256 252 250 252 255
230 230 230 232 235 236 234 232 231 231 228 230 232 234 238 234 231 230 226 236 258 257 252 276 271 231 207 201 209 214 220 238 153 150 180 190 182 170 163 165 178 189 197 204 210 214 217 221 225 233 243 248 248 249 248 248 251 249 244 244 243 240 242 241 242 243 242 249 253 252 255 260 265 266 263 263 262 260 259 259 261 261 261 263 264
229 229 229 232 236 237 234 231 231 230 228 232 236 238 239 234 227 222 225 245 251 232 229 269 273 219 190 201 225 231 249 303 247 170 187 192 188 176 167 167 166 167 173 182 193 198 200 201 203 215 223 228 236 244 247 250 259 260 240 236 249 254 254 249 242 235 233 245 252 254 259 264 267 268 266 265 264 263 261 261 264 266 266 264 262
227 227 229 232 234 234 233 232 231 230 229 232 236 237 235 229 223 219 228 239 232 226 232 240 242 206 182 213 269 260 262 310 77 132 191 187 183 177 177 174 164 160 160 161 170 177 177 167 162 180 192 194 205 220 240 240 253 269 249 230 247 257 259 256 254 249 242 250 256 259 264 267 268 267 266 268 268 267 266 267 268 267 264 262 261
225 226 228 231 232 233 233 233 233 231 229 229 230 231 230 225 219 218 227 226 221 229 226 219 210 181 143 95 307 278 268 358 83 132 181 182 179 180 186 182 173 170 160 144 135 154 168 164 157 162 180 195 206 218 241 219 194 65 52 52 220 249 245 238 253 254 246 249 260 269 265 262 265 265 265 266 266 266 268 270 270 267 266 267 266
226 226 228 230 231 231 233 233 233 233 231 231 229 228 228 220 213 216 222 216 215 224 219 220 222 195 145 105 120 83 269 337 55 126 180 182 182 187 191 189 185 179 165 144 125 131 150 168 170 168 186 217 226 221 191 145 106 73 58 47 57 73 210 222 244 253 262 273 283 282 260 255 259 262 265 267 269 270 271 272 270 269 269 269 265
227 227 229 230 230 231 233 233 234 234 233 233 232 232 227 217 211 216 215 211 215 220 214 217 223 211 192 154 123 104 224 241 51 104 179 184 188 193 194 196 195 186 172 161 148 140 129 148 164 158 190 248 259 247 160 123 96 90 55 37 43 45 36 352 288 281 289 301 309 307 286 267 262 261 262 263 269 271 271 271 270 270 269 268 266
229 229 230 231 231 230 232 233 234 235 234 233 234 234 224 215 215 214 209 210 218 218 214 214 213 217 220 213 215 223 202 173 97 108 179 187 196 200 201 202 201 195 184 180 177 168 154 152 159 150 211 265 272 284 316 330 18 50 27 24 33 32 16 1 351 354 355 352 349 351 355 343 311 295 286 274 271 269 270 271 270 271 271 270 270
230 230 230 231 230 229 231 233 234 235 235 232 233 231 221 217 217 209 206 213 221 222 219 214 209 214 219 220 229 209 181 170 160 153 162 192 204 204 210 210 206 202 198 196 196 191 184 179 181 194 241 262 255 249 293 330 335 345 352 3 11 10 4 0 2 10 11 7 3 1 355 348 339 330 325 316 307 295 289 285 281 279 277 276 275
230 230 229 229 229 228 230 232 233 234 233 232 233 226 218 218 212 206 209 216 223 227 222 213 211 212 207 208 210 187 178 180 184 175 150 171 186 187 206 213 212 210 207 207 209 207 209 210 211 225 250 264 258 246 249 295 336 342 338 339 337 340 350 357 359 3 8 7 3 1 355 348 337 327 323 317 315 313 308 305 301 298 293 290 285
229 229 228 229 228 227 229 230 231 232 230 231 231 220 214 212 206 206 213 218 225 229 223 216 215 215 208 206 202 187 180 175 179 174 140 161 197 172 183 198 214 218 214 216 217 214 219 230 234 241 253 266 268 260 255 263 288 305 305 305 305 312 326 338 341 340 348 355 355 353 349 343 334 323 318 314 311 310 308 306 305 305 305 304 300
226 226 227 228 228 227 227 228 230 230 229 230 225 215 211 208 206 210 215 220 225 225 224 223 221 218 216 212 205 193 182 165 173 169 122 139 181 202 180 179 201 218 218 221 222 220 223 232 239 244 251 262 269 269 267 269 279 290 295 294 293 296 305 315 323 323 323 330 333 335 338 338 331 319 309 307 307 305 306 306 306 307 307 308 309
225 225 226 226 227 226 226 228 229 229 229 228 219 213 211 208 209 217 220 223 225 222 222 224 221 218 220 221 216 210 205 201 200 191 164 138 140 155 184 184 199 214 220 226 227 226 227 234 241 246 252 262 269 271 273 276 281 288 292 292 293 295 299 305 311 313 313 315 316 318 323 327 328 320 307 302 302 302 302 301 302 304 305 306 307
224 225 225 225 225 225 225 226 226 227 229 223 215 213 213 211 215 222 224 225 224 221 219 218 217 217 222 225 223 225 230 233 223 207 205 192 175 171 160 165 200 216 224 232 232 232 232 236 244 246 250 259 270 273 275 278 280 285 288 289 292 292 295 300 306 311 311 310 309 308 309 313 318 317 309 302 301 301 301 298 298 298 298 299 300
220 223 224 224 223 223 224 224 223 225 224 217 213 214 213 213 219 224 223 223 223 222 221 219 218 219 222 224 225 232 237 235 230 222 224 209 182 178 166 136 187 204 223 237 237 238 238 242 249 253 255 260 268 272 271 274 278 281 284 287 290 290 290 294 299 306 311 311 310 307 305 307 310 312 308 302 299 299 300 300 299 297 296 296 294
219 222 225 224 224 224 224 224 223 222 218 214 214 215 215 217 221 222 221 222 224 224 224 222 220 220 221 224 229 232 229 226 224 225 231 224 201 192 180 128 143 199 219 242 243 240 240 246 253 256 261 266 271 271 267 268 273 277 282 285 287 288 291 293 294 299 304 308 308 307 307 308 309 310 309 306 301 298 298 298 298 298 297 296 295
222 223 225 225 224 224 223 224 222 218 214 212 214 216 218 220 222 222 222 224 226 226 224 221 219 219 220 224 228 224 219 219 221 225 231 230 220 209 194 167 152 293 293 269 253 243 242 250 252 250 257 274 280 279 273 269 271 277 282 284 286 288 293 296 297 299 301 303 302 301 300 302 304 306 306 306 304 301 299 298 296 296 295 295 294
223 224 225 225 224 222 221 222 220 215 212 212 213 216 219 220 220 220 222 224 225 225 222 219 219 221 221 223 223 219 219 222 223 227 230 230 230 225 213 195 186 222 322 304 276 254 252 254 249 245 251 265 274 273 272 273 277 284 287 287 290 292 295 298 299 299 300 299 298 297 295 295 296 298 300 302 303 302 300 298 296 295 293 293 292
223 224 224 225 224 221 220 220 217 213 213 213 214 217 219 219 218 219 221 222 222 223 222 220 220 222 222 223 223 220 221 223 223 225 227 228 227 227 227 218 205 191 183 265 264 245 244 245 241 241 244 248 256 256 256 261 268 278 284 286 289 292 295 296 297 297 297 296 295 295 294 293 293 295 296 298 299 300 300 299 297 294 293 292 291
223 224 224 223 222 220 219 218 216 214 214 214 215 218 221 220 219 221 222 223 224 224 223 222 222 224 224 225 226 225 224 223 222 224 226 226 225 224 227 225 218 209 198 203 250 246 234 236 242 247 248 247 251 256 258 258 259 267 275 283 288 292 295 295 296 297 299 298 297 296 295 295 295 296 298 299 300 300 300 299 297 295 294 293 292
223 223 222 221 219 218 217 217 216 215 215 216 218 220 222 223 223 224 225 225 227 226 225 224 224 225 225 225 228 227 225 225 226 229 227 224 225 226 225 224 224 228 222 205 222 257 246 245 251 252 254 257 259 262 267 270 277 284 287 293 297 298 299 299 300 301 301 299 297 296 297 297 298 300 301 301 301 300 300 300 298 296 295 295 294
222 221 220 219 218 217 216 216 216 216 217 218 219 222 224 225 226 227 227 226 227 227 225 225 226 227 225 225 227 226 223 225 228 228 227 225 226 227 228 230 229 232 231 214 211 249 258 258 259 256 258 267 270 270 275 282 291 297 301 305 307 306 305 304 303 302 303 301 296 293 295 297 299 300 300 299 299 298 299 299 299 298 297 296 296
221 219 219 219 218 217 215 215 216 217 219 219 220 222 224 226 227 228 227 225 226 227 225 226 227 227 226 224 225 225 223 226 229 229 230 229 228 226 227 231 231 231 231 222 220 243 260 262 262 262 266 273 274 275 283 291 297 301 304 307 310 310 310 310 306 303 306 309 305 298 297 299 301 302 302 301 299 296 295 295 296 296 296 298 299
220 218 218 217 217 217 215 215 216 218 220 220 220 221 223 225 225 226 226 225 225 225 225 227 226 224 223 223 225 225 225 228 231 232 233 232 230 229 229 232 235 234 233 231 230 238 254 262 264 265 267 273 279 282 291 299 305 308 309 312 315 315 314 314 309 304 308 312 312 309 304 302 303 305 307 307 304 301 300 298 297 297 297 299 300
219 218 218 217 216 215 215 216 217 219 221 221 220 221 223 224 225 226 226 226 226 225 225 227 226 223 223 224 226 226 226 230 234 235 235 234 234 235 236 238 238 238 238 240 239 237 246 260 265 266 268 275 283 288 296 302 307 310 311 315 319 319 319 317 310 306 308 309 310 310 308 304 302 303 305 306 305 304 304 303 301 300 300 299 298
218 217 217 216 215 214 215 216 218 219 221 222 221 222 223 225 226 227 227 227 227 226 227 228 227 225 225 227 228 227 228 232 236 236 236 235 236 237 239 240 240 241 242 245 247 246 246 255 264 267 271 278 284 290 296 301 306 309 313 318 321 322 322 319 312 309 309 308 308 307 303 301 301 300 300 300 301 301 301 300 299 299 299 298 295
217 216 215 215 214 214 215 216 218 219 221 222 221 221 223 225 226 227 228 229 228 228 229 230 230 228 228 230 230 229 230 234 236 236 237 238 239 238 239 241 242 243 244 247 251 250 248 253 260 264 269 275 281 287 293 300 306 310 314 319 320 321 322 319 314 311 310 309 310 309 305 302 300 298 297 298 299 298 296 295 295 296 295 295 293
215 215 215 214 214 215 216 217 218 219 220 222 222 221 222 224 225 227 229 230 230 230 230 231 232 232 232 233 233 232 232 235 237 237 238 241 241 239 239 243 247 248 248 249 251 251 251 255 260 265 269 272 278 285 291 300 305 308 313 317 318 319 320 316 312 310 311 312 312 313 310 307 304 301 300 301 300 297 295 294 293 291 290 290 291
213 214 215 215 215 216 217 218 219 220 220 221 222 222 222 223 223 225 227 229 230 230 231 233 234 234 235 235 236 235 235 237 239 239 240 243 244 244 245 247 249 250 250 251 252 252 252 255 259 263 268 272 278 285 292 298 301 304 309 311 310 315 319 315 308 307 309 311 312 312 312 310 309 307 307 309 308 304 302 301 298 295 293 291 292
212 214 215 215 216 217 218 218 219 220 220 221 222 221 221 222 222 224 226 228 230 230 232 234 235 236 237 237 238 238 238 239 240 241 243 245 246 247 248 248 247 249 250 252 252 251 251 253 256 260 266 271 276 282 289 294 297 303 308 303 296 305 314 312 306 305 306 308 310 312 313 314 313 312 313 313 312 311 312 311 308 305 305 304 303
212 214 215 216 216 216 217 218 219 219 220 221 222 221 220 220 221 223 225 227 229 230 232 234 235 236 237 238 239 240 240 240 241 244 248 250 249 248 250 249 247 248 251 251 250 250 249 249 253 259 265 270 275 280 285 291 297 302 306 300 291 297 306 303 302 304 304 306 310 311 313 314 313 313 315 314 312 314 314 313 312 312 313 312 310
211 212 213 215 215 216 216 217 218 219 221 222 222 221 221 221 221 222 224 228 230 231 232 233 234 236 237 238 240 240 240 241 242 246 252 254 253 254 256 255 252 251 250 248 248 247 246 246 251 256 259 266 274 278 282 292 300 301 303 301 297 301 304 299 301 307 308 310 311 308 310 313 310 310 313 312 310 313 312 310 310 311 311 310 308
210 210 211 213 214 216 217 217 218 219 221 223 222 222 223 222 221 221 224 227 229 231 233 233 235 237 237 237 238 239 240 241 242 246 252 253 253 254 255 256 256 255 253 249 248 246 244 245 251 255 256 263 275 282 287 295 301 301 304 304 301 302 301 295 297 305 310 313 308 300 304 310 309 309 313 313 311 312 310 306 306 307 309 309 308
209 209 210 211 213 215 217 218 219 221 223 223 222 223 224 223 222 222 224 227 229 230 233 235 237 238 236 235 237 239 240 240 242 244 246 248 251 253 254 255 256 258 257 256 254 250 248 250 254 258 259 262 275 289 294 297 299 300 301 299 297 296 292 287 284 294 307 312 302 295 300 306 309 310 311 312 312 311 308 305 304 304 307 309 308
209 209 209 210 213 215 216 218 220 222 223 223 223 224 224 223 223 223 225 226 228 230 233 236 238 236 234 235 238 239 238 239 240 242 244 248 251 253 254 254 254 256 255 254 254 255 259 262 262 266 270 270 278 291 295 294 292 295 296 296 299 297 290 286 286 294 306 308 302 298 299 305 311 309 306 310 313 311 307 305 304 302 303 304 302
208 209 209 209 212 214 216 218 220 222 223 222 223 224 224 223 224 224 225 226 228 231 234 238 238 235 233 235 236 237 238 238 238 240 243 246 248 251 251 250 251 251 250 249 253 259 266 270 270 275 282 284 286 293 294 289 287 290 294 298 303 302 295 292 293 298 303 305 305 300 293 304 315 308 303 313 315 309 308 306 304 303 301 298 297
210 210 208 209 212 214 216 217 219 221 222 222 223 224 224 224 225 225 225 225 228 231 234 238 237 235 235 237 237 238 241 241 240 241 241 242 244 247 249 252 251 248 247 252 259 265 271 275 276 278 282 286 290 293 291 287 290 300 304 303 303 301 298 297 297 300 304 310 315 298 277 301 317 307 303 313 311 305 307 306 305 305 302 300 302
210 210 210 211 212 213 215 216 218 220 222 222 223 224 224 224 224 224 223 224 226 230 234 236 236 234 236 238 238 240 244 245 243 242 242 241 241 243 249 254 252 246 246 253 262 269 276 280 280 279 280 286 289 289 289 294 302 304 300 296 296 298 300 302 303 308 316 323 323 300 270 289 310 303 300 307 307 303 306 308 309 310 309 311 315
209 209 211 212 212 213 213 214 216 219 221 222 222 223 223 224 222 220 220 222 225 229 232 235 234 234 236 237 237 241 246 246 243 243 243 239 238 245 253 252 247 245 248 255 265 276 282 281 279 278 281 284 281 283 294 301 300 294 288 289 295 300 305 303 298 307 317 320 319 302 265 276 299 299 298 305 307 305 309 314 317 318 319 321 321
208 210 211 211 212 213 213 214 216 217 219 221 222 222 223 223 221 219 219 219 222 227 231 234 235 236 236 236 238 242 243 241 241 242 239 232 234 246 252 247 245 248 252 259 270 277 275 273 274 274 277 281 285 295 302 300 293 287 289 300 313 317 311 298 286 295 307 312 315 299 258 276 299 301 300 305 306 305 310 317 321 323 323 322 321
209 210 210 210 211 212 213 214 216 216 217 219 220 221 222 221 220 219 217 216 219 224 228 231 233 235 236 235 236 240 241 240 241 239 233 234 242 247 244 242 244 250 256 265 272 270 267 270 274 277 281 289 298 305 303 296 297 309 322 331 334 327 319 310 305 303 299 305 317 307 279 287 302 304 303 302 300 305 312 314 316 320 323 324 323